Location: 埔里
(23.9503°N, 120.9728°E)
Time: 16:21:34
(UTC+08:00)

ISS - Visible Passes

Search period start: 04 August 2020 00:00
Search period end: 14 August 2020 00:00
Orbit: 418 x 420 km, 51.6° (Epoch: 04 August)

Date Brightness Start Highest point End Pass type
(mag) Time Alt. Az. Time Alt. Az. Time Alt. Az.
04 Aug -0.4 21:09:09 10° NW 21:09:31 13° NW 21:09:31 13° NW visible
05 Aug -2.7 20:21:34 10° NW 20:23:59 43° NNW 20:23:59 43° NNW visible
06 Aug -2.7 19:34:17 10° NNW 19:37:20 31° NE 19:38:32 24° E visible
07 Aug -1.8 20:23:37 10° WNW 20:26:08 24° WSW 20:26:08 24° WSW visible
08 Aug -3.2 19:35:37 10° NW 19:38:54 52° SW 19:40:51 21° SSE visible
10 Aug -0.9 19:38:51 10° W 19:40:14 12° SW 19:41:35 10° SSW visible
